Weather History for Oakland, CA

Change the Weather History Date:

Thursday, July 10, 2014

  Actual Average Record
Temperature  
Mean Temperature 67 °F 63 °F  
Max Temperature 73 °F 71 °F 99 °F (1959)
Min Temperature 60 °F 56 °F 52 °F (1953)
Degree Days  
Heating Degree Days 0 3  
Month to date heating degree days 20 30  
Since 1 June heating degree days 91 133  
Since 1 July heating degree days 20 30  
Cooling Degree Days 2 1  
Month to date cooling degree days 2 10  
Year to date cooling degree days 66 44  
Since 1 June cooling degree days 22 28  
Growing Degree Days 16 (Base 50)    
Moisture  
Dew Point 55 °F    
Average Humidity 71    
Maximum Humidity 84    
Minimum Humidity 57    
Precipitation  
Precipitation 0.00 in 0.00 in 0.01 in (1974)
Month to date precipitation 0.00 0.01  
Year to date precipitation 7.98 13.23  
Since 1 July precipitation 0.00 0.01  
Sea Level Pressure  
Sea Level Pressure 29.92 in    
Wind  
Wind Speed 9 mph (West)    
Max Wind Speed 18 mph    
Max Gust Speed 22 mph    
Visibility 10 miles    
Events      
T = Trace of Precipitation, MM = Missing Value Source: NWS Daily Summary

Daily Weather History Graph

Daily Weather History Graph

Search for Another Location

Airport:

Trip Planner

Search our weather history database for the weather conditions in past years. The results will help you decide how hot, cold, wet, or windy it might be!

Date:

Astronomy

Jul. 10, 2014 Rise Set
Actual Time 5:55 AM PDT 8:32 PM PDT
Civil Twilight 5:25 AM PDT 9:03 PM PDT
Nautical Twilight 4:46 AM PDT 9:41 PM PDT
Astronomical Twilight 4:04 AM PDT 10:23 PM PDT
Moon 6:51 PM PDT (7/10) 4:11 AM PDT (7/10)
Length of Visible Light 15h 37m
Length of Day
14h 36m
Waxing Gibbous, 96% of the Moon is Illuminated
Jul 10
Waxing Gibbous
Jul 12
Full
Jul 18
Last Quarter
Jul 26
New
Aug 3
First Quarter

Hourly Weather History & Observations

Time (PDT) Temp. Dew Point Humidity Pressure Visibility Wind Dir Wind Speed Gust Speed Precip Events Conditions
12:53 AM 60.8 °F 53.6 °F 77% 29.91 in 10.0 mi Calm Calm - N/A   Overcast
1:53 AM 60.1 °F 55.0 °F 83% 29.90 in 10.0 mi West 3.5 mph - N/A   Overcast
2:53 AM 60.8 °F 55.4 °F 82% 29.89 in 10.0 mi NNW 3.5 mph - N/A   Overcast
3:53 AM 60.1 °F 55.0 °F 83% 29.89 in 10.0 mi North 4.6 mph - N/A   Overcast
4:53 AM 60.1 °F 55.0 °F 83% 29.90 in 10.0 mi North 5.8 mph - N/A   Overcast
5:53 AM 60.8 °F 55.4 °F 82% 29.91 in 10.0 mi Variable 3.5 mph - N/A   Overcast
6:53 AM 61.0 °F 55.0 °F 81% 29.92 in 10.0 mi WSW 9.2 mph - N/A   Overcast
7:53 AM 61.0 °F 55.0 °F 81% 29.94 in 10.0 mi WSW 8.1 mph - N/A   Overcast
8:11 AM 62.6 °F 55.4 °F 77% 29.94 in 10.0 mi SW 6.9 mph - N/A   Overcast
8:53 AM 62.1 °F 55.0 °F 78% 29.95 in 10.0 mi WSW 5.8 mph - N/A   Overcast
9:24 AM 62.6 °F 55.4 °F 77% 29.94 in 10.0 mi SW 4.6 mph - N/A   Scattered Clouds
9:35 AM 62.6 °F 55.4 °F 77% 29.94 in 10.0 mi Variable 3.5 mph - N/A   Mostly Cloudy
9:53 AM 64.9 °F 55.9 °F 73% 29.94 in 10.0 mi WSW 3.5 mph - N/A   Mostly Cloudy
10:53 AM 66.9 °F 55.0 °F 66% 29.94 in 10.0 mi NW 5.8 mph - N/A   Partly Cloudy
11:53 AM 68.0 °F 54.0 °F 61% 29.93 in 10.0 mi West 8.1 mph - N/A   Partly Cloudy
12:53 PM 72.0 °F 55.0 °F 55% 29.91 in 10.0 mi WNW 11.5 mph - N/A   Partly Cloudy
1:53 PM 72.0 °F 55.0 °F 55% 29.91 in 10.0 mi WNW 13.8 mph 18.4 mph N/A   Partly Cloudy
2:53 PM 72.0 °F 55.0 °F 55% 29.89 in 10.0 mi West 10.4 mph - N/A   Partly Cloudy
3:53 PM 72.0 °F 55.0 °F 55% 29.89 in 10.0 mi West 13.8 mph - N/A   Partly Cloudy
4:53 PM 69.1 °F 55.9 °F 63% 29.88 in 10.0 mi WSW 17.3 mph - N/A   Partly Cloudy
5:53 PM 68.0 °F 55.9 °F 65% 29.88 in 10.0 mi WSW 16.1 mph - N/A   Partly Cloudy
6:53 PM 66.9 °F 55.0 °F 66% 29.89 in 10.0 mi WSW 16.1 mph - N/A   Partly Cloudy
7:53 PM 64.0 °F 55.0 °F 73% 29.91 in 10.0 mi West 12.7 mph - N/A   Scattered Clouds
8:53 PM 63.0 °F 54.0 °F 72% 29.92 in 10.0 mi West 9.2 mph - N/A   Scattered Clouds
9:53 PM 62.1 °F 55.0 °F 78% 29.94 in 10.0 mi West 5.8 mph - N/A   Scattered Clouds
10:53 PM 62.1 °F 55.0 °F 78% 29.94 in 10.0 mi West 9.2 mph - N/A   Scattered Clouds
11:53 PM 62.1 °F 55.0 °F 78% 29.94 in 10.0 mi West 6.9 mph - N/A   Scattered Clouds